Location: La Tine
(46.4708°N, 7.0525°E)
Time: 13:17:45
(UTC+00:00)

FENGYUN 1C DEB - Visible Passes

Search period start: 24 September 2021 00:00
Search period end: 04 October 2021 00:00
Orbit: 797 x 873 km, 98.9° (Epoch: 20 September)

Date Brightness Start Highest point End Pass type
(mag) Time Alt. Az. Time Alt. Az. Time Alt. Az.
24 Sep ? 19:27:06 16° NE 19:27:06 16° NE 19:29:38 10° NNE visible
24 Sep ? 21:08:47 32° NNW 21:08:47 32° NNW 21:11:32 10° NNW visible
25 Sep ? 19:10:37 12° NE 19:10:37 12° NE 19:12:19 10° NNE visible
25 Sep ? 20:52:18 32° N 20:52:18 32° N 20:55:05 10° N visible
25 Sep ? 22:33:59 11° NW 22:33:59 11° NW 22:34:09 10° NW visible
26 Sep ? 20:35:49 30° N 20:35:49 30° N 20:38:34 10° N visible
26 Sep ? 22:17:29 14° NW 22:17:29 14° NW 22:18:20 10° NW visible
27 Sep ? 20:19:19 26° NNE 20:19:19 26° NNE 20:21:58 10° N visible
27 Sep ? 22:01:00 16° NW 22:01:00 16° NW 22:02:17 10° NNW visible
28 Sep ? 20:02:50 22° NNE 20:02:50 22° NNE 20:05:19 10° N visible
28 Sep ? 21:44:31 19° NW 21:44:31 19° NW 21:46:06 10° NNW visible
29 Sep ? 19:46:20 18° NE 19:46:20 18° NE 19:48:32 10° NNE visible
29 Sep ? 21:28:01 22° NNW 21:28:01 22° NNW 21:29:48 10° NNW visible
30 Sep ? 19:29:51 15° NE 19:29:51 15° NE 19:31:37 10° NNE visible
30 Sep ? 21:11:31 23° NNW 21:11:31 23° NNW 21:13:26 10° NNW visible
01 Oct ? 19:13:21 12° NE 19:13:21 12° NE 19:14:19 10° NNE visible
01 Oct ? 20:55:01 23° N 20:55:01 23° N 20:56:59 10° N visible
02 Oct ? 20:38:32 23° N 20:38:32 23° N 20:40:28 10° N visible
03 Oct ? 20:22:01 21° N 20:22:01 21° N 20:23:53 10° N visible
03 Oct ? 22:03:42 12° NW 22:03:42 12° NW 22:04:09 10° NNW visible
